This is the latest recevied weather packets stored in our database for station/object N6HGA-1. If no packets are shown the sender has not sent any weather packets the latest 1 day(s).
| Time | Temp. | Humidity | Pressure | Rain* | Wind** | Luminosity | Snow |
|---|---|---|---|---|---|---|---|
| 1836274621 | 22.22° C | 75% | 1015.7 hPa | 0 mm | 2.68 m/s, 255° | - | - |
| 1836274472 | 22.22° C | 74% | 1015.7 hPa | 0 mm | 0.45 m/s, 249° | - | - |
| 1836274318 | 22.22° C | 75% | 1015.7 hPa | 0 mm | 3.13 m/s, 246° | - | - |
| 1836274171 | 22.22° C | 74% | 1015.8 hPa | 0 mm | 0.89 m/s, 283° | - | - |
| 1836274018 | 22.22° C | 75% | 1015.6 hPa | 0 mm | 3.58 m/s, 248° | - | - |
| 1778039076 | 12.22° C | 78% | - | 0 mm | 1.79 m/s, 248° | - | - |
| 1778038774 | 12.22° C | 78% | - | 0 mm | 2.68 m/s, 252° | - | - |
| 1778038474 | 12.22° C | 77% | - | 0 mm | 3.13 m/s, 255° | - | - |
| 1778038173 | 12.22° C | 77% | - | 0 mm | 2.24 m/s, 255° | - | - |
| 1778037873 | 12.78° C | 77% | - | 0 mm | 3.13 m/s, 255° | - | - |
| 1778037572 | 12.78° C | 93% | - | 0 mm | 2.68 m/s, 257° | - | - |
| 1778037264 | 12.78° C | 93% | - | 0 mm | 3.58 m/s, 257° | - | - |
| 1778036955 | 12.78° C | 92% | - | 0 mm | 3.13 m/s, 257° | - | - |
| 1778036650 | 12.78° C | 92% | - | 0 mm | 2.68 m/s, 250° | - | - |
| 1778036350 | 12.78° C | - | - | - | 3.58 m/s, 252° | - | - |
| 1778036348 | 12.78° C | 92% | - | 0 mm | 3.58 m/s, 252° | - | - |
| 1778036048 | 13.33° C | 91% | - | 0 mm | 4.02 m/s, 257° | - | - |
| 1778035888 | 13.33° C | 90% | - | 0 mm | 3.58 m/s, 257° | - | - |
| 1778035747 | 13.33° C | 90% | - | 0 mm | 3.58 m/s, 257° | - | - |
| 1778035447 | 13.33° C | 90% | - | 0 mm | 3.58 m/s, 250° | - | - |
| 1778035147 | 13.33° C | 89% | - | 0 mm | 2.68 m/s, 259° | - | - |
| 1778034843 | 13.89° C | 88% | - | 0 mm | 2.68 m/s, 267° | - | - |
| 1778034542 | 13.89° C | 88% | - | 0 mm | 3.13 m/s, 259° | - | - |
| 1778034241 | 14.44° C | 87% | - | 0 mm | 4.02 m/s, 257° | - | - |
| 1778033940 | 14.44° C | 87% | - | 0 mm | 3.13 m/s, 259° | - | - |
* Rain since midnight (hover to see other rain measurements)
** Current wind speed in m/s (hover to see current wind gust speed)